Regional Weather Roundup
Issued by NWS Sterling, VA

Home | Current Version | Previous Version | Text Only | Print | Product List | Glossary Off
Versions: 1 2 3 4 5 6 7 8 9 10 11 12 13 14 15 16 17 18 19 20 21 22 23 24 25 26 27

000
ASUS41 KLWX 232311
RWRLWX

REGIONAL WEATHER ROUNDUP
NATIONAL WEATHER SERVICE BALTIMORE MD/WASHINGTON DC
700 PM EDT TUE AUG 23 2016

Note: "FAIR" indicates few or no clouds below 12,000 feet
with no significant weather and/or obstructions to visibility.
 TC=TEMPERATURE CELSIUS

 * =Non NWS site. Station does not report precipitation (e.g. rain,
    snow, etc.), thunder, or fog.

DCZ001-MDZ009-015-VAZ040>042-051-053>054-240000-
WASHINGTON METRO

CITY           SKY/WX    TMP DP  RH WIND       PRES   REMARKS
WASHINGTON NAT MOCLDY    81  58  45 S6        30.25F
DULLES         MOCLDY    80  58  46 S8        30.25F
ANDREWS AFB    CLEAR     77  60  56 E9        30.25F
FT BELVOIR     CLEAR     79  62  56 S2        30.25F
QUANTICO       PTCLDY    80  60  50 SE8       30.26F
COLLEGE PARK*  CLEAR     77  59  53 E6        30.25S
LEESBURG*      CLEAR     82  61  47 SW3       30.27S
MANASSAS*      CLEAR     81  63  54 SE6       30.25F
GAITHERSBURG*  CLEAR     77  59  53 CALM      30.30S

$$

MDZ006>007-011-014-240000-
BALTIMORE METRO

CITY           SKY/WX    TMP DP  RH WIND       PRES   REMARKS
BWI AIRPORT    PTCLDY    77  59  53 SE6       30.25F
MARTIN STATE   PTCLDY    79  61  53 SE5       30.27F
ANNAPOLIS      CLEAR     79  58  48 SE8       30.26F
FORT MEADE*    CLEAR     72  64  78 S3        30.28S

$$

MDZ012-015-019>023-240000-
MARYLAND EASTERN SHORE

CITY           SKY/WX    TMP DP  RH WIND       PRES   REMARKS
OCEAN CITY     CLEAR     74  58  57 E7        30.27F
SALISBURY      CLEAR     75  58  55 SE6       30.27S
BAY BRIDGE AP* CLEAR     81  57  44 SE5       30.26F
CAMBRIDGE*     CLEAR     75  61  60 CALM      30.26F
EASTON*        PTCLDY    79  64  61 CALM      30.30F

$$

MDZ017>025-240000-
SOUTHERN MARYLAND

CITY           SKY/WX    TMP DP  RH WIND       PRES   REMARKS
PATUXENT RIVER PTCLDY    77  57  50 E5        30.26F
ST INIGOES     CLEAR     78  58  49 E3        30.26S
LEONARDTOWN*   CLEAR     75  59  57 CALM      30.28S

$$

MDZ003>005-240000-
NORTH CENTRAL MARYLAND

CITY           SKY/WX    TMP DP  RH WIND       PRES   REMARKS
FREDERICK*     CLEAR     81  66  61 CALM      30.28F
HAGERSTOWN APT CLEAR     81  58  45 SW7       30.26F

$$

MDZ501>502-240000-
WESTERN MARYLAND

CITY           SKY/WX    TMP DP  RH WIND       PRES   REMARKS
OAKLAND*       SUNNY     68  57  68 SE5       30.35F
CUMBERLAND*    SUNNY     81  59  47 CALM      30.28F

$$

VAZ025>031-240000-
SHENANDOAH VALLEY

CITY           SKY/WX    TMP DP  RH WIND       PRES   REMARKS
WINCHESTER*    CLEAR     79  63  57 S5        30.26F
FRONT ROYAL*   FAIR      77  64  65 CALM      30.25F
LURAY*         FAIR      79  61  53 S3        30.26S
NEW MARKET*    FAIR     N/A N/A N/A CALM      30.24F
STAUNTON*      SUNNY     77  62  59 S5        30.29F
WAYNESBORO*    FAIR      76  62  62 E6        30.29S

$$

WVZ021-048>050-054>055-240000-
EASTERN WEST VIRGINIA PANHANDLE

CITY           SKY/WX    TMP DP  RH WIND       PRES   REMARKS
MARTINSBURG    CLEAR     78  62  57 SE3       30.25F
PETERSBURG*    SUNNY     82  62  50 S6        30.24F

$$

VAZ036>039-050-240000-
CENTRAL FOOTHILLS

CITY           SKY/WX    TMP DP  RH WIND       PRES   REMARKS
CHARLOTTESVILL CLEAR     82  62  50 S5        30.25F
CULPEPER*      CLEAR     80  66  61 CALM      30.26F
ORANGE*          N/A     79  64  61 CALM      30.28S
GORDONSVILLE*  FAIR      77  68  73 CALM      30.25F
WARRENTON*     FAIR      80  59  47 E3        30.25F

$$

VAZ055>057-240000-
NORTH AND CENTRAL PIEDMONT

CITY           SKY/WX    TMP DP  RH WIND       PRES   REMARKS
FREDERICKSBRG*   N/A     82  63  52 SE5       30.24F
STAFFORD*      CLEAR     79  60  50 E6        30.29F

$$

NCZ024-NYZ072-PAZ021-071-VAZ022-071-240000-
OTHER REGIONAL OBSERVATIONS

CITY           SKY/WX    TMP DP  RH WIND       PRES   REMARKS
NEW YORK CITY  CLEAR     77  56  48 CALM      30.26F
PHILADELPHIA   PTCLDY    81  53  37 NW9       30.26S
PITTSBURGH     PTSUNNY   78  54  43 CALM      30.26F
ROANOKE        PTSUNNY   79  63  57 SE8       30.28F
RICHMOND       PTCLDY    80  58  46 E6        30.25F
RALEIGH        MOCLDY    83  59  44 E7        30.24S

$$

ANZ530>537-240000-
MARINE OBSERVATIONS

STATION/POSITION TIME  TEMP    WIND        PRES
                       AIR SEA DIR/SP/G
                 (UTC) (F)     (DEG/KT/KT) (MB)
THOMAS PT LIGHT  2300   78 83  140/  5/  6 1026.0F
BALT KEY BRIDGE  2242   78                   N/A
COVE POINT       2242   78                   N/A
LEWISETTA        2242   78 82                N/A
SOLOMONS ISLAND  2242   79 85                N/A
PINEY POINT      2230          160/  6/  7   N/A

$$





USA.gov is the U.S. government's official web portal to all federal, state and local government web resources and services.